sat.trackr.live / text

‹ back to catalog

STARLINK-30617

NORAD 58104 · 2023-161H

PAYLOAD ACTIVE UNKNOWN

§ Identity

Operator
Country
US
Launch date
2023-10-21
Launch site
AFWTR
Launch vehicle
Mass (kg)
RCS (m²)

Purposes: comms

External: N2YO · Heavens-Above · Gunter

§ Orbital elements

Epoch: 2026-09-20T11:46:40.667808Z

Period
93.85 min
Inclination
53.1621°
Eccentricity
0.0001343
Mean motion
15.34399221 rev/d
Perigee alt
461.8 km
Apogee alt
463.6 km
Semi-major
6,840.8 km
B*
3.9312e-5
RAAN
337.8789°
Arg perigee
91.1515°
Mean anomaly
268.9642°
Rev number
16,428

§ Raw data

STARLINK-306171 58104U 23161H   26263.49074847  .00000952  00000+0  39312-4 0  99902 58104  53.1621 337.8789 0001343  91.1515 268.9642 15.34399221164283

JSON: /api/v1/satellites/58104 · /tle

For live sub-satellite position, see the globe view (requires WebGL).

§ Visibility from observer

Set your observer location to see the next 7 days of passes ≥ 10°. The values pass through the URL so the page stays shareable.

No JS? Fill the form by hand. The geolocation button needs JavaScript.